Location: TAAA CAC
(31.8680°N, 109.5150°W)
Time: 22:03:03
(UTC-07:00)

Hubble Space Telescope - Pass Details

Date: 14 March 2026
Orbit: 474 x 477 km, 28.5° (Epoch: 20 April)

Event Time Altitude Azimuth Distance (km) Brightness Sun altitude
Rises 19:42:54 0° 266° (W) 2,505 5.8 -17.2°
Reaches altitude 10° 19:45:09 10° 260° (W) 1,627 4.3 -17.7°
Maximum altitude 19:48:44 45° 186° (S) 645 1.1 -18.4°
Enters shadow 19:49:27 39° 152° (SSE) 711 1.1 -18.6°
